Location: Unspecified
(42.9300°N, 71.1866°W)
Time: 09:38:43
(UTC-05:00)

Genesis I - Visible Passes

Search period start: 10 December 2016 00:00
Search period end: 20 December 2016 00:00
Orbit: 507 x 525 km, 64.5° (Epoch: 10 December)

Date Brightness Start Highest point End Pass type
(mag) Time Alt. Az. Time Alt. Az. Time Alt. Az.
10 Dec 4.3 17:00:56 10° NW 17:04:45 49° WSW 17:08:30 10° SSE visible
11 Dec 4.4 16:45:25 10° NW 16:49:13 47° WSW 16:52:57 10° SSE visible
13 Dec 6.5 06:21:35 10° SSE 06:24:30 20° ESE 06:27:27 10° ENE visible
14 Dec 6.3 06:05:59 10° SSE 06:08:57 21° ESE 06:11:57 10° ENE visible
15 Dec 6.1 05:50:23 10° SSE 05:53:25 21° ESE 05:56:28 10° ENE visible
16 Dec 6.0 05:34:48 10° SSE 05:37:53 22° ESE 05:40:57 10° ENE visible
17 Dec 5.8 05:19:12 10° SSE 05:22:19 22° ESE 05:25:27 10° ENE visible
18 Dec 5.7 05:03:38 10° SSE 05:06:47 23° ESE 05:09:57 10° ENE visible
19 Dec 5.6 04:48:02 10° SSE 04:51:14 24° ESE 04:54:27 10° ENE visible
19 Dec 3.9 06:25:10 10° WSW 06:28:46 33° NW 06:32:25 10° NNE visible
